Weather History for Denver Centennial, CO

Change the Weather History Date:

Monday, October 3, 2011

  Actual Average Record
Temperature  
Mean Temperature 65 °F -  
Max Temperature 81 °F 67 °F 84 °F (2005)
Min Temperature 49 °F 39 °F 32 °F (1999)
Growing Degree Days 15 (Base 50)    
Moisture  
Dew Point 34 °F    
Average Humidity 36    
Maximum Humidity 54    
Minimum Humidity 17    
Precipitation  
Precipitation 0.00 in - - ()
Month to date precipitation 0.00  
Sea Level Pressure  
Sea Level Pressure 30.00 in    
Wind  
Wind Speed 4 mph (South)    
Max Wind Speed 16 mph    
Max Gust Speed 22 mph    
Visibility 10 miles    
Events      
Averages and records for this station are not official NWS values.
T = Trace of Precipitation, MM = Missing Value Source: NWS Daily Summary

Daily Weather History Graph

Daily Weather History Graph

Search for Another Location

Airport:

Trip Planner

Search our weather history database for the weather conditions in past years. The results will help you decide how hot, cold, wet, or windy it might be!

Date:

Astronomy

Oct. 03, 2011 Rise Set
Actual Time 6:57 AM MDT 6:39 PM MDT
Civil Twilight 6:30 AM MDT 7:05 PM MDT
Nautical Twilight 5:59 AM MDT 7:36 PM MDT
Astronomical Twilight 5:27 AM MDT 8:08 PM MDT
Moon 1:55 PM MDT (10/3) 11:46 PM MDT (10/3)
Length of Visible Light 12h 35m
Length of Day
11h 41m
Waxing Crescent, 46% of the Moon is Illuminated
Oct 3
Waxing Crescent
Oct 3
First Quarter
Oct 11
Full
Oct 19
Last Quarter
Oct 26
New

Hourly Weather History & Observations

Time (MDT) Temp. Dew Point Humidity Pressure Visibility Wind Dir Wind Speed Gust Speed Precip Events Conditions
2:53 AM 60.1 °F 36.0 °F 41% 30.00 in 10.0 mi Calm Calm - N/A   Clear
3:53 AM 57.0 °F 36.0 °F 45% 30.02 in 10.0 mi South 3.5 mph - N/A   Clear
4:53 AM 55.0 °F 35.1 °F 47% 30.04 in 10.0 mi SW 5.8 mph - N/A   Clear
5:53 AM 51.1 °F 35.1 °F 54% 30.08 in 10.0 mi ESE 5.8 mph - N/A   Clear
6:53 AM 51.1 °F 35.1 °F 54% 30.11 in 10.0 mi Calm Calm - N/A   Partly Cloudy
8:53 AM 64.0 °F 35.1 °F 34% 30.09 in 10.0 mi WSW 5.8 mph - N/A   Scattered Clouds
9:53 AM 68.0 °F 35.1 °F 30% 30.08 in 10.0 mi WSW 5.8 mph - N/A   Scattered Clouds
10:53 AM 72.0 °F 35.1 °F 26% 30.06 in 10.0 mi NW 6.9 mph - N/A   Scattered Clouds
11:53 AM 75.0 °F 36.0 °F 24% 30.05 in 10.0 mi Calm Calm - N/A   Scattered Clouds
12:53 PM 78.1 °F 36.0 °F 22% 30.02 in 10.0 mi Variable 5.8 mph - N/A   Partly Cloudy
1:53 PM 79.0 °F 34.0 °F 20% 29.99 in 10.0 mi Variable 4.6 mph - N/A   Partly Cloudy
2:53 PM 79.0 °F 32.0 °F 18% 29.96 in 10.0 mi ESE 8.1 mph - N/A   Scattered Clouds
3:53 PM 78.1 °F 33.1 °F 19% 29.96 in 10.0 mi SW 3.5 mph - N/A   Scattered Clouds
4:53 PM 78.1 °F 30.9 °F 18% 29.95 in 10.0 mi Variable 3.5 mph - N/A   Scattered Clouds
5:53 PM 78.1 °F 30.9 °F 18% 29.96 in 10.0 mi ESE 4.6 mph - N/A   Scattered Clouds
6:53 PM 73.9 °F 33.1 °F 22% 29.96 in 10.0 mi ESE 3.5 mph - N/A   Scattered Clouds
7:53 PM 66.9 °F 32.0 °F 27% 29.97 in 10.0 mi South 6.9 mph - N/A   Mostly Cloudy
8:53 PM 63.0 °F 30.9 °F 30% 29.97 in 10.0 mi South 10.4 mph - N/A   Scattered Clouds
9:53 PM 66.0 °F 33.1 °F 29% 29.95 in 10.0 mi SSW 11.5 mph - N/A   Scattered Clouds
10:53 PM 64.9 °F 34.0 °F 32% 29.93 in 10.0 mi SW 12.7 mph - N/A   Scattered Clouds
11:53 PM 57.9 °F 34.0 °F 41% 29.94 in 10.0 mi ESE 6.9 mph - N/A   Clear